STARLINK-34629 (64790 NORAD) Tracking and Keplerian Element Data

This shows tracking and keplerian element data for the satellite.

Feedback or suggestion? Click here.




ElementValue
Catalog64790
NameSTARLINK-34629
Epoch Orbit584
Epoch Day354.25003472
Epoch Year2025
RAAN334.7166
Inclination70.0007
Eccentricity0.0002917
Argument of Perigee258.8684
Mean Anonmoly262.5842
Mean Motion14.99239956
Decay Rate-7.88E-06
L11 64790U 25150A 25354.25003472 -.00000788 00000+0 -56870-4 0 9995
L22 64790 70.0007 334.7166 0002917 258.8684 262.5842 14.99239956 5845



Live tracking and technical data element details for STARLINK-34629 (NORAD 64790). STARLINK-34629 can be tracked NOW for your location showing map with azimuth and elevation plus other details from your city location.







IsCatalogInMostPopularTable: catalog: 64790, numindb: 10
Update: records affected: 1



GetName: 64790 STARLINK-34629

Hit Count: updated at: Tue, 21 Apr 2026 19:13:21 GMT